This is the latest recevied weather packets stored in our database for station/object N3LF. If no packets are shown the sender has not sent any weather packets the latest 10 day(s).
| Time | Temp. | Humidity | Pressure | Rain* | Wind** | Luminosity | Snow |
|---|---|---|---|---|---|---|---|
| 1787878046 | 25° C | 79% | 1016.7 hPa | 0 mm | - | 0 W/m² | - |
| 1787877742 | 25.56° C | 79% | 1017 hPa | 0 mm | - | 0 W/m² | - |
| 1787877442 | 25.56° C | 79% | 1016.7 hPa | 0 mm | - | 0 W/m² | - |
| 1787877138 | 25.56° C | 79% | 1016.7 hPa | 0 mm | - | 1 W/m² | - |
| 1787876837 | 26.11° C | 77% | 1016.8 hPa | 0 mm | - | 2 W/m² | - |
| 1787876533 | 26.11° C | 78% | 1016.6 hPa | 0 mm | - | 4 W/m² | - |
| 1787876232 | 26.11° C | 76% | 1016.6 hPa | 0 mm | - | 6 W/m² | - |
| 1787875927 | 26.11° C | 77% | 1016.8 hPa | 0 mm | - | 9 W/m² | - |
| 1787875622 | 26.67° C | 75% | 1016.5 hPa | 0 mm | - | 12 W/m² | - |
| 1787875321 | 27.22° C | 74% | 1016.6 hPa | 0 mm | - | 16 W/m² | - |
| 1787875019 | 27.78° C | 73% | 1016.5 hPa | 0 mm | - | 20 W/m² | - |
| 1787874715 | 28.33° C | 70% | 1016.5 hPa | 0 mm | - | 24 W/m² | - |
| 1787874413 | 28.33° C | 67% | 1016.3 hPa | 0 mm | - | 28 W/m² | - |
| 1787874108 | 28.89° C | 66% | 1016.6 hPa | 0 mm | - | 31 W/m² | - |
| 1787873808 | 29.44° C | 66% | 1016.4 hPa | 0 mm | - | 35 W/m² | - |
| 1787873503 | 30° C | 64% | 1016.4 hPa | 0 mm | - | 46 W/m² | - |
| 1787873198 | 30° C | 63% | 1016.7 hPa | 0 mm | - | 53 W/m² | - |
| 1787872896 | 29.44° C | 69% | 1016.8 hPa | 0 mm | - | 60 W/m² | - |
| 1787872592 | 30° C | 64% | 1016.6 hPa | 0 mm | - | 68 W/m² | - |
| 1787872287 | 29.44° C | 65% | 1016.6 hPa | 0 mm | - | 76 W/m² | - |
| 1787871987 | 29.44° C | 65% | 1016.4 hPa | 0 mm | - | 84 W/m² | - |
| 1787871682 | 29.44° C | 66% | 1016.6 hPa | 0 mm | - | 96 W/m² | - |
| 1787871378 | 29.44° C | 66% | 1016.6 hPa | 0 mm | - | 104 W/m² | - |
| 1787871073 | 30° C | 66% | 1016.5 hPa | 0 mm | - | 115 W/m² | - |
| 1787870772 | 30.56° C | 65% | 1016.5 hPa | 0 mm | - | 124 W/m² | - |
* Rain latest hour (hover to see other rain measurements)
** Current wind speed in m/s (hover to see current wind gust speed)